User: anonymous   Login
Location: Unspecified
(0.0000°N, 0.0000°E)
Time: 09:52:29
(UTC+00:00)
Language:

NEE 01 PEGASUS - Orbit

View from above orbital plane
View from above orbital plane
View from above satellite
View from above satellite

Ground track
Ground track

The orbit data is extracted from the following two-line orbital elements,

1 39151U 13018B   19113.76786683  .00000134  00000-0  24630-4 0  9995
2 39151  97.9686 210.6069 0017587  27.7067 332.5077 14.80025360323450
Epoch (UTC): 23 April 2019 18:25:43
Eccentricity: 0.0017587
inclination: 97.9686°
perigee height: 617 km
apogee height: 641 km
right ascension of ascending node: 210.6069°
argument of perigee: 27.7067°
revolutions per day: 14.80025360
mean anomaly at epoch: 332.5077°
orbit number at epoch: 32345

The dashed part of the orbit path shows where the satellite is in the earth's shadow,  

DLR